Temp
13 11 11 10 11 10 11 10 10 9 9 9 9 9 8 8 9 8 8 8 7 7 7 8 7 7 7 7 7 8 9 9 9 10 9 8 7 7
12 11 11 11 11 11 11 11 11 10 9 9 9 8 8 8 8 7 6 7 7 7 7 7 7 7 7 7 7 7 8 8 8 9 9 7 7 6
11 11 11 11 11 11 11 11 10 10 8 9 8 8 7 7 7 6 6 6 6 6 6 6 6 6 6 6 6 7 7 6 7 8 7 7 6 6
11 11 11 11 11 11 11 11 10 9 8 8 8 8 8 8 7 6 6 6 5 6 5 6 5 5 5 6 6 6 6 6 5 6 5 5 5 5
10 10 11 11 11 11 10 10 9 8 8 7 7 7 7 6 5 4 5 5 5 5 5 5 5 5 5 5 5 5 5 6 5 4 5 6 5 5
11 11 11 11 11 10 10 9 8 8 7 7 7 6 6 5 4 3 3 4 5 4 4 4 4 4 4 4 3 3 3 2 3 3 3 4 3 3
10 10 10 10 9 9 8 8 8 7 7 6 6 5 4 4 2 2 2 3 3 4 4 4 3 3 3 3 2 2 2 2 2 2 2 2 2 2
10 10 9 9 8 8 8 7 7 7 6 5 5 4 3 2 2 1 2 2 2 3 3 3 3 2 2 2 2 2 1 1 1 1 1 1 1 2
10 9 9 8 8 8 8 7 7 6 6 5 4 3 3 2 1 1 1 1 2 2 2 3 2 2 2 2 2 1 1 1 1 1 1 1 1 1
8 8 8 8 7 7 6 6 5 5 5 3 2 2 2 2 2 2 1 1 1 1 1 2 2 2 2 1 1 1 1 0 -0 -0 -0 0 0 1
7 7 7 6 6 6 5 5 4 4 4 2 1 1 1 1 1 1 1 0 0 1 1 1 1 1 1 1 1 0 0 -0 -1 -1 -0 -0 0 -0
7 6 6 5 5 5 5 4 2 2 2 1 1 1 1 1 1 1 0 0 -0 -0 1 0 1 0 -0 0 0 -0 -1 -1 -1 -1 -1 -0 -1 -1
6 6 5 4 4 3 3 2 2 1 1 1 1 1 1 1 1 -0 0 -0 -0 -0 -0 -1 -0 -0 -1 -1 -0 -1 -1 -2 -2 -1 -1 -1 -1 -1
6 5 5 4 3 3 2 1 1 1 0 0 0 0 -0 0 -0 -1 -1 -1 -1 -1 -1 -1 -1 -1 -1 -1 -2 -2 -1 -1 -2 -2 -2 -1 -1 -1
5 4 4 3 3 2 2 1 1 -0 -0 -0 -0 -0 -0 -0 -1 -1 -1 -1 -1 -1 -1 -2 -2 -2 -2 -2 -2 -2 -2 -1 -2 -2 -1 -1 -1 -0
4 4 3 3 3 2 2 0 -1 -2 -1 -1 -1 -1 -1 -2 -2 -1 -1 -2 -2 -2 -2 -2 -2 -3 -3 -3 -3 -2 -2 -2 -1 -1 -2 -1 -1 -2
3 3 2 2 2 2 1 -0 -1 -2 -2 -2 -2 -2 -2 -2 -2 -2 -2 -3 -3 -3 -3 -3 -3 -3 -3 -3 -3 -3 -2 -2 -2 -1 -1 -1 -1 -1
1 2 2 2 2 1 -0 -1 -2 -3 -3 -2 -2 -3 -3 -2 -3 -3 -3 -3 -3 -4 -4 -3 -4 -3 -3 -3 -3 -3 -2 -2 -2 -1 -1 -1 -1 -1
0 1 1 1 1 -0 -1 -2 -2 -3 -3 -3 -3 -3 -3 -3 -3 -3 -3 -4 -4 -4 -4 -4 -4 -4 -4 -4 -3 -2 -2 -1 -2 -1 -1 -0 0 -1
-1 -0 0 0 0 -1 -1 -2 -3 -3 -3 -4 -3 -3 -4 -4 -4 -3 -4 -4 -4 -5 -5 -4 -4 -4 -4 -4 -4 -3 -2 -1 -1 -1 -1 -1 -0 -0
-1 -0 -0 -0 -0 -1 -2 -2 -2 -3 -3 -4 -3 -4 -4 -4 -4 -4 -4 -4 -4 -4 -4 -4 -4 -5 -5 -5 -4 -3 -3 -3 -2 -2 -1 -1 -1 0
-2 -2 -2 -2 -2 -2 -2 -2 -2 -3 -3 -3 -4 -4 -4 -4 -4 -4 -4 -4 -4 -5 -4 -5 -5 -5 -5 -5 -4 -3 -3 -3 -3 -2 -2 -1 -1 -1
-2 -2 -2 -2 -2 -2 -3 -3 -3 -3 -3 -3 -4 -4 -5 -4 -4 -4 -4 -4 -4 -4 -5 -5 -5 -5 -5 -5 -4 -4 -4 -3 -3 -2 -2 -2 -2 -2
Height
1549 1550 1553 1554 1557 1560 1558 1558 1559 1558 1559 1560 1557 1557 1559 1558 1555 1553 1552 1552 1552 1554 1554 1553 1552 1553 1553 1549 1548 1547 1547 1543 1540 1538 1539 1544 1548 1549
1545 1549 1550 1552 1554 1554 1554 1554 1554 1554 1556 1555 1555 1555 1554 1553 1551 1550 1550 1549 1549 1551 1552 1552 1552 1550 1549 1550 1549 1545 1543 1540 1537 1535 1536 1541 1544 1545
1544 1546 1548 1549 1550 1550 1550 1550 1550 1550 1552 1553 1552 1550 1550 1549 1548 1547 1547 1546 1545 1546 1547 1548 1549 1548 1548 1546 1545 1544 1541 1541 1539 1536 1536 1539 1541 1542
1542 1543 1544 1545 1545 1546 1546 1545 1545 1547 1548 1546 1546 1544 1544 1543 1541 1541 1541 1542 1541 1540 1541 1541 1543 1542 1544 1545 1543 1540 1540 1541 1541 1539 1534 1536 1538 1541
1539 1539 1539 1540 1541 1542 1542 1541 1542 1543 1542 1540 1539 1540 1538 1535 1533 1532 1532 1531 1532 1532 1535 1534 1535 1537 1538 1539 1540 1537 1536 1537 1540 1539 1538 1539 1540 1541
1532 1534 1536 1537 1536 1537 1538 1538 1538 1537 1537 1535 1536 1536 1534 1532 1529 1530 1531 1527 1529 1527 1525 1529 1531 1533 1534 1535 1535 1535 1533 1534 1536 1537 1537 1538 1538 1539
1529 1530 1532 1534 1532 1532 1533 1533 1533 1532 1532 1532 1533 1531 1530 1527 1523 1524 1524 1524 1524 1524 1524 1523 1525 1527 1528 1531 1532 1531 1531 1532 1534 1535 1536 1537 1537 1538
1526 1527 1528 1530 1529 1529 1529 1528 1528 1526 1527 1527 1527 1527 1526 1524 1521 1518 1519 1518 1518 1519 1519 1519 1521 1522 1523 1526 1527 1527 1528 1529 1530 1531 1532 1533 1534 1535
1522 1523 1524 1525 1525 1525 1523 1522 1521 1520 1521 1520 1524 1522 1518 1516 1518 1516 1516 1519 1515 1519 1516 1517 1515 1517 1519 1522 1523 1523 1524 1525 1525 1527 1528 1529 1530 1532
1518 1519 1520 1521 1520 1519 1519 1517 1516 1515 1515 1516 1517 1518 1514 1511 1508 1508 1511 1514 1514 1513 1514 1512 1513 1511 1513 1516 1518 1518 1519 1520 1521 1523 1524 1525 1526 1528
1514 1514 1515 1516 1518 1515 1513 1514 1510 1510 1509 1510 1509 1511 1511 1510 1508 1505 1502 1505 1505 1507 1509 1507 1511 1509 1508 1511 1513 1513 1514 1515 1517 1519 1520 1521 1522 1523
1509 1512 1511 1511 1511 1510 1508 1507 1506 1504 1506 1505 1505 1503 1503 1505 1507 1503 1503 1500 1501 1504 1501 1507 1506 1506 1505 1506 1508 1509 1509 1511 1513 1515 1515 1517 1518 1519
1505 1508 1508 1508 1506 1504 1505 1502 1502 1502 1501 1499 1497 1496 1498 1498 1498 1502 1499 1497 1497 1496 1499 1498 1503 1503 1501 1503 1505 1505 1505 1507 1509 1511 1511 1513 1514 1516
1500 1502 1504 1503 1504 1500 1500 1499 1498 1496 1496 1493 1491 1489 1494 1493 1495 1495 1496 1494 1495 1494 1496 1496 1499 1500 1498 1500 1501 1500 1501 1503 1505 1506 1508 1509 1510 1512
1494 1496 1497 1498 1497 1497 1496 1492 1492 1493 1491 1489 1487 1483 1487 1489 1492 1488 1493 1491 1490 1492 1490 1493 1495 1495 1495 1496 1496 1497 1499 1499 1500 1502 1504 1506 1507 1509
1487 1489 1488 1491 1494 1491 1487 1487 1489 1489 1486 1486 1485 1483 1481 1488 1488 1485 1484 1483 1484 1488 1487 1488 1490 1491 1492 1492 1493 1494 1495 1497 1496 1498 1500 1503 1504 1505
1480 1481 1481 1482 1485 1485 1482 1484 1483 1481 1480 1481 1480 1479 1482 1483 1480 1477 1480 1481 1482 1483 1483 1484 1485 1486 1487 1487 1488 1490 1491 1493 1494 1494 1496 1497 1499 1501
1470 1472 1474 1475 1476 1479 1479 1478 1478 1475 1475 1474 1476 1480 1480 1475 1474 1474 1475 1479 1479 1479 1479 1480 1481 1482 1482 1483 1484 1486 1487 1489 1490 1491 1493 1493 1495 1497
1463 1464 1468 1469 1469 1473 1473 1474 1473 1470 1470 1470 1471 1474 1474 1471 1470 1469 1472 1474 1475 1475 1476 1477 1478 1478 1478 1478 1481 1482 1484 1485 1487 1487 1488 1490 1492 1493
1456 1457 1460 1462 1465 1464 1467 1469 1469 1467 1464 1465 1465 1466 1469 1468 1465 1466 1468 1469 1470 1472 1472 1473 1475 1474 1475 1476 1477 1479 1479 1480 1481 1483 1484 1486 1487 1488
1451 1451 1455 1455 1459 1461 1461 1460 1461 1462 1462 1459 1459 1462 1464 1462 1461 1461 1463 1465 1466 1467 1468 1469 1471 1470 1470 1471 1472 1473 1475 1476 1477 1478 1480 1482 1483 1484
1446 1446 1448 1449 1452 1452 1452 1454 1455 1457 1456 1454 1454 1457 1457 1456 1455 1457 1459 1460 1462 1463 1464 1465 1465 1465 1466 1466 1468 1469 1470 1472 1473 1474 1475 1477 1479 1480
1439 1439 1440 1442 1443 1444 1445 1447 1449 1450 1448 1448 1450 1451 1450 1449 1449 1452 1454 1456 1457 1458 1459 1460 1460 1460 1460 1462 1463 1464 1465 1466 1468 1469 1470 1472 1474 1475
Wind_Speed
20 17 18 18 17 16 15 14 14 12 13 7 8 14 16 16 19 18 17 16 15 14 11 13 16 19 19 18 17 15 22 19 17 19 24 23 27 27
18 16 16 15 15 17 16 15 14 13 17 14 14 17 21 23 20 16 15 13 13 14 15 18 19 20 21 17 17 15 17 13 10 5 16 24 28 22
19 17 17 16 16 15 15 14 15 14 15 18 19 19 19 20 19 18 16 15 14 15 15 19 21 22 21 18 15 17 12 4 5 12 17 28 25 28
20 19 18 16 15 16 15 15 14 14 16 17 18 18 20 19 18 17 14 15 16 17 16 16 18 19 17 18 14 14 9 8 8 9 18 24 28 23
22 20 18 16 16 16 15 14 15 16 17 17 19 21 20 18 18 18 18 17 17 18 18 19 17 18 16 14 13 11 10 9 12 13 15 19 14 10
21 19 19 18 17 16 15 16 16 17 19 20 21 21 22 20 18 17 18 16 16 17 16 18 17 17 14 13 10 11 9 11 12 13 16 15 13 10
20 19 18 17 16 15 16 17 18 20 21 20 19 19 19 19 17 16 17 16 16 17 16 17 17 16 15 13 12 11 10 14 16 16 17 16 14 11
21 19 17 17 16 16 18 19 21 21 22 21 20 19 17 17 14 13 15 16 14 12 14 14 15 16 15 15 14 13 12 15 18 19 18 19 17 14
19 18 17 17 17 20 21 22 22 20 21 20 19 17 16 15 14 14 15 16 14 17 14 13 14 15 16 17 16 14 14 15 18 19 20 21 18 17
17 16 16 17 18 19 20 20 20 19 19 18 17 16 15 13 12 11 14 17 17 17 16 17 18 17 17 17 16 15 15 16 16 17 18 18 18 18
16 15 15 16 17 18 18 18 18 18 17 15 13 13 14 14 13 11 10 12 14 16 17 18 18 17 16 16 16 15 16 17 17 17 17 16 18 18
15 14 14 13 11 11 12 15 16 16 16 14 13 12 12 12 14 12 12 12 13 13 14 16 18 16 11 14 16 18 18 17 18 18 17 17 16 18
16 14 12 11 10 10 11 12 12 13 15 13 12 12 12 12 12 14 12 12 13 14 14 12 14 15 15 13 14 11 16 17 18 18 17 16 16 16
17 16 15 14 13 12 14 15 13 14 14 13 12 11 12 12 13 14 14 13 13 14 15 16 17 14 13 14 17 17 15 15 18 17 17 17 17 16
20 19 18 17 14 14 16 15 15 15 15 12 10 10 11 12 14 12 13 14 15 15 15 16 17 18 16 16 17 14 17 15 17 17 16 17 18 17
25 25 22 19 17 16 15 14 16 16 16 14 12 11 9 12 14 12 12 14 16 16 16 16 18 19 19 18 18 16 14 10 10 19 17 18 17 17
24 24 22 21 18 16 13 15 15 15 16 14 14 14 13 13 12 12 13 15 16 15 13 15 16 18 19 18 19 17 16 15 13 8 17 19 17 17
23 22 22 21 20 17 15 14 15 16 16 13 15 16 15 13 12 12 13 15 15 14 14 12 13 15 16 17 18 18 17 16 15 14 14 13 15 15
24 22 23 21 18 18 18 15 16 15 15 15 15 15 15 13 13 13 14 14 14 14 14 14 13 13 14 16 13 12 17 17 16 18 16 16 13 12
26 25 22 18 18 16 16 17 16 15 17 17 16 15 16 15 14 13 13 13 12 13 15 15 15 13 15 15 14 12 14 14 17 18 16 16 15 15
24 25 23 20 21 20 18 17 18 17 16 14 15 17 17 16 14 13 12 13 13 14 15 14 9 12 15 17 20 17 14 13 12 16 17 17 16 16
26 26 25 24 25 24 21 21 20 20 18 16 14 16 18 18 17 15 14 14 14 14 13 11 12 14 16 18 18 17 15 14 15 16 17 17 17 17
27 26 26 25 24 24 25 24 24 23 20 18 18 17 17 18 19 17 16 16 15 15 14 13 13 16 18 19 18 17 18 17 17 18 19 17 16 19
Wind_Direction
265 247 246 249 252 253 273 279 283 284 300 291 288 296 303 303 306 303 292 291 289 289 273 249 231 261 282 283 303 310 307 306 284 253 234 224 213 205
247 238 242 242 252 263 273 276 274 264 262 279 277 284 292 297 306 306 300 295 296 276 254 259 275 277 290 294 302 310 317 313 308 241 216 213 211 196
239 239 243 247 255 260 269 276 281 277 271 275 281 287 290 296 303 306 305 299 287 273 264 271 270 272 280 280 293 312 323 288 259 181 200 198 190 188
235 238 243 247 254 265 268 273 280 279 276 281 289 292 297 298 298 293 297 298 294 284 271 276 280 281 281 282 294 308 315 250 204 167 152 168 180 188
235 233 239 249 256 261 262 267 270 275 282 286 292 294 295 297 296 294 277 276 280 277 275 272 267 271 273 278 290 305 299 266 234 225 216 215 220 217
230 238 247 250 252 258 267 268 275 284 291 295 291 291 298 299 293 293 287 276 276 273 270 275 271 268 268 275 281 297 298 259 239 221 227 223 232 226
229 236 242 246 252 257 265 273 281 286 290 289 287 290 301 308 313 293 287 282 281 275 270 267 261 260 259 267 271 289 289 244 236 226 225 233 232 231
233 236 242 249 256 264 269 274 279 284 284 282 286 292 304 318 311 293 286 285 290 281 275 262 259 259 263 272 271 277 280 256 237 232 227 225 234 233
233 238 245 255 264 270 275 276 277 277 277 281 282 285 295 304 316 302 290 290 286 279 277 270 261 262 265 265 267 268 272 256 240 237 232 228 232 231
234 244 254 261 266 270 273 275 275 274 276 276 275 278 287 295 298 300 293 284 280 275 273 269 267 267 261 259 259 265 263 249 239 238 237 235 230 231
234 244 257 269 275 274 276 273 271 270 274 271 269 277 285 292 292 284 280 278 277 273 270 267 269 267 262 260 260 260 257 246 243 240 237 233 229 225
236 247 257 263 266 282 288 279 270 267 268 267 270 272 279 285 292 286 280 272 272 281 272 266 267 260 260 260 259 259 251 240 240 241 238 229 227 219
235 242 244 255 270 283 293 300 293 281 271 267 266 272 279 278 278 281 277 274 270 264 259 265 263 254 244 258 268 279 251 242 239 237 231 224 225 213
231 237 246 255 267 279 276 279 287 287 278 272 271 276 278 280 278 277 276 276 273 270 264 258 255 251 247 266 262 261 264 246 235 233 226 217 217 219
239 245 250 256 265 278 282 283 282 284 280 278 275 272 275 279 276 276 280 276 269 265 262 257 252 253 251 256 265 266 259 266 237 228 222 226 224 220
242 248 255 251 256 273 282 278 284 284 281 282 280 278 279 281 278 284 279 273 270 267 263 258 254 250 250 253 260 263 256 245 239 228 220 229 233 229
246 244 246 248 259 272 275 277 280 277 273 276 276 279 280 280 283 283 280 278 272 270 262 259 256 254 254 253 254 254 248 240 239 242 231 233 235 238
239 242 247 251 259 269 269 275 278 274 270 264 264 269 273 283 287 284 278 275 274 269 268 259 255 252 253 254 254 248 246 238 234 236 239 234 226 229
243 244 249 257 267 266 274 278 279 282 272 259 257 263 271 277 283 286 278 272 274 270 265 260 253 251 251 257 254 248 249 246 243 243 237 240 230 223
244 243 248 261 273 274 274 275 272 272 273 268 255 257 262 269 273 277 278 279 274 269 264 260 256 253 255 257 253 250 245 248 243 238 235 233 228 232
253 250 251 258 260 254 258 266 269 270 275 279 262 254 258 263 267 273 275 275 271 267 269 269 268 255 248 250 254 255 250 251 242 233 226 230 239 247
258 257 258 260 258 253 253 254 257 258 262 270 273 268 262 259 262 265 268 270 270 276 275 266 255 253 256 257 260 260 253 247 243 237 236 234 238 251
258 259 261 260 256 252 250 248 249 252 253 255 261 264 267 263 261 261 263 265 267 268 270 267 261 260 261 262 263 259 259 256 247 247 246 247 251 257